Location: Potomac
(46.8816°N, 113.5795°W)
Time: 23:01:11
(UTC+00:00)

N. Korean satellite - Visible Passes

Search period start: 28 January 2022 00:00
Search period end: 07 February 2022 00:00
Orbit: 447 x 490 km, 97.3° (Epoch: 28 January)

Date Brightness Start Highest point End Pass type
(mag) Time Alt. Az. Time Alt. Az. Time Alt. Az.
28 Jan 7.3 12:38:40 10° NNE 12:42:15 54° E 12:44:00 27° SSE visible
28 Jan 8.4 14:13:10 10° NNW 14:14:57 13° WNW 14:16:44 10° W visible
29 Jan 8.9 12:09:51 10° NE 12:12:54 24° E 12:14:58 15° SE visible
29 Jan 7.6 13:42:55 10° NNW 13:45:59 26° WNW 13:49:01 10° SW visible
30 Jan 9.9 11:42:03 10° ENE 11:43:23 12° E 11:44:42 10° ESE visible
30 Jan 6.6 13:13:17 10° N 13:16:52 55° WNW 13:20:02 12° SSW visible
31 Jan 7.0 12:43:59 10° NNE 12:47:36 63° E 12:51:09 10° S visible
31 Jan 8.5 14:18:54 10° NW 14:20:14 12° WNW 14:21:33 10° W visible
01 Feb 8.6 12:15:02 10° NE 12:18:13 28° E 12:21:20 10° SSE visible
01 Feb 7.7 13:48:20 10° NNW 13:51:14 23° WNW 13:54:06 10° WSW visible
02 Feb 9.8 11:46:52 10° ENE 11:48:41 13° E 11:50:29 10° ESE visible
02 Feb 6.7 13:18:34 10° N 13:22:06 47° WNW 13:25:33 10° SSW visible
03 Feb 6.7 12:49:10 10° NNE 12:52:49 74° ESE 12:56:24 10° S visible
04 Feb 8.4 12:20:07 10° NNE 12:23:24 31° E 12:26:38 10° SSE visible
04 Feb 7.9 13:53:38 10° NNW 13:56:21 20° WNW 13:59:01 10° WSW visible
05 Feb 9.6 11:51:41 10° NE 11:53:51 15° E 11:56:00 10° SE visible
05 Feb 6.9 13:23:45 10° N 13:27:11 41° WNW 13:30:34 10° SW visible
06 Feb 6.5 12:54:15 10° NNE 12:57:53 86° ESE 13:01:28 10° SSW visible
